This demonstration page uses our WeatherBlox Daily Observations layout. Learn more.

Left ArrowRight Arrow

39.95238, -75.16362

Hourly Observations for April 17, 2022

Temp ( °F °C ) Dew Point ( °F °C ) Humidity (%) Winds ( mph kmh ) Pressure ( in mb ) Visibility ( mi km ) Precip ( " mm )
12:54 am 00:54 Mostly Cloudy 50 10 45 7.2 83 83 NNW 5 7 29.95 1014 10 16 0.00 0.00
1:54 am 01:54 Partly Cloudy 48 8.9 44 6.7 86 86 NW 5 7 29.97 1015 10 16 0.00 0.00
2:54 am 02:54 Mostly Cloudy 49 9.4 44 6.7 83 83 N 8 13 29.96 1014 10 16 0.00 0.00
3:54 am 03:54 Partly Cloudy 48 8.9 41 5 77 77 NNW 7 11 29.96 1015 10 16 0.00 0.00
4:54 am 04:54 Mostly Cloudy 44 6.7 37 2.8 76 76 N 7 11 30.00 1016 10 16 0.00 0.00
5:54 am 05:54 Partly Cloudy 44 6.7 36 2.2 73 73 N 9 15 30.04 1017 10 16 0.00 0.00
6:54 am 06:54 Mostly Sunny 44 6.7 34 1.1 68 68 N 9 15 30.08 1019 10 16 0.00 0.00
7:54 am 07:54 Mostly Sunny 45 7.2 35 1.7 68 68 N 9 15 30.12 1020 10 16 0.00 0.00
8:54 am 08:54 Mostly Sunny 47 8.3 33 0.6 59 59 N 12 19 30.14 1021 10 16 0.00 0.00
9:54 am 09:54 Partly Cloudy 49 9.4 29 -1.7 46 46 NW 18 30 30.14 1021 10 16 0.00 0.00
10:54 am 10:54 Mostly Cloudy 49 9.4 28 -2.2 44 44 NW 17 28 30.15 1021 10 16 0.00 0.00
11:54 am 11:54 Mostly Cloudy 52 11.1 30 -1.1 43 43 NNW 16 26 30.16 1021 10 16 0.00 0.00
12:54 pm 12:54 Mostly Cloudy 51 10.6 26 -3.3 38 38 NNW 18 30 30.16 1022 10 16 0.00 0.00
1:54 pm 13:54 Mostly Cloudy 50 10 28 -2.2 43 43 NNW 22 35 30.17 1022 10 16 0.00 0.00
2:54 pm 14:54 Mostly Cloudy 51 10.6 28 -2.2 41 41 NW 17 28 30.19 1022 10 16 0.00 0.00
3:54 pm 15:54 Mostly Cloudy 51 10.6 26 -3.3 38 38 NW 16 26 30.20 1023 10 16 0.00 0.00
4:54 pm 16:54 Partly Cloudy 51 10.6 24 -4.4 35 35 NNW 20 31 30.22 1023 10 16 0.00 0.00
5:54 pm 17:54 Mostly Sunny 52 11.1 23 -5 32 32 NW 13 20 30.24 1024 10 16 0.00 0.00
6:54 pm 18:54 Mostly Sunny 49 9.4 20 -6.7 32 32 NNW 10 17 30.25 1024 10 16 0.00 0.00
7:54 pm 19:54 Mostly Clear 46 7.8 20 -6.7 35 35 NNW 12 19 30.29 1026 10 16 0.00 0.00
8:54 pm 20:54 Mostly Clear 44 6.7 20 -6.7 38 38 N 7 11 30.31 1027 10 16 0.00 0.00
9:54 pm 21:54 Clear 44 6.7 20 -6.7 38 38 N 7 11 30.33 1027 10 16 0.00 0.00
10:54 pm 22:54 Clear 42 5.6 20 -6.7 41 41 NNW 5 7 30.34 1027 10 16 0.00 0.00
11:54 pm 23:54 Clear 39 3.9 21 -6.1 48 48 NNE 6 9 30.35 1028 10 16 0.00 0.00

Powered by AerisWeather